TimePDT,TemperatureF,Dew PointF,Humidity,Sea Level PressureIn,VisibilityMPH,Wind Direction,Wind SpeedMPH,Gust SpeedMPH,PrecipitationIn,Events,Conditions,WindDirDegrees,DateUTC
12:53 AM,71.1,37.9,30,29.76,10.0,ESE,6.9,-,N/A,,Clear,120,2013-05-04 07:53:00
1:53 AM,69.1,39.9,35,29.75,10.0,East,6.9,-,N/A,,Clear,100,2013-05-04 08:53:00
2:53 AM,66.9,43.0,42,29.74,10.0,Calm,Calm,-,N/A,,Clear,0,2013-05-04 09:53:00
3:53 AM,64.0,37.9,38,29.73,10.0,Calm,Calm,-,N/A,,Clear,0,2013-05-04 10:53:00
4:53 AM,64.0,45.0,50,29.73,10.0,Calm,Calm,-,N/A,,Clear,0,2013-05-04 11:53:00
5:53 AM,61.0,39.0,44,29.73,10.0,Calm,Calm,-,N/A,,Clear,0,2013-05-04 12:53:00
6:53 AM,62.1,48.0,60,29.75,8.0,SE,4.6,-,N/A,,Partly Cloudy,130,2013-05-04 13:53:00
7:53 AM,62.1,54.0,75,29.76,5.0,East,4.6,-,N/A,,Haze,90,2013-05-04 14:53:00
8:53 AM,64.9,53.1,65,29.76,7.0,SE,8.1,-,N/A,,Clear,140,2013-05-04 15:53:00
9:53 AM,70.0,51.1,51,29.76,10.0,SE,8.1,-,N/A,,Clear,130,2013-05-04 16:53:00
10:53 AM,72.0,51.1,48,29.76,10.0,South,13.8,-,N/A,,Clear,180,2013-05-04 17:53:00
11:53 AM,73.9,51.1,45,29.75,10.0,SSW,10.4,-,N/A,,Clear,200,2013-05-04 18:53:00
12:53 PM,75.0,50.0,41,29.73,10.0,South,12.7,19.6,N/A,,Clear,170,2013-05-04 19:53:00
1:53 PM,75.9,48.9,38,29.72,10.0,South,15.0,18.4,N/A,,Clear,180,2013-05-04 20:53:00
2:53 PM,77.0,50.0,39,29.71,10.0,South,13.8,17.3,N/A,,Clear,180,2013-05-04 21:53:00
3:53 PM,75.9,48.0,37,29.71,10.0,South,12.7,-,N/A,,Clear,180,2013-05-04 22:53:00
4:53 PM,75.0,46.9,37,29.71,10.0,SSE,12.7,21.9,N/A,,Clear,150,2013-05-04 23:53:00
5:53 PM,70.0,52.0,53,29.73,10.0,South,13.8,-,N/A,,Clear,180,2013-05-05 00:53:00
6:53 PM,69.1,50.0,51,29.73,10.0,SE,13.8,-,N/A,,Clear,140,2013-05-05 01:53:00
7:53 PM,66.0,52.0,60,29.75,10.0,SE,12.7,-,N/A,,Scattered Clouds,130,2013-05-05 02:53:00
8:04 PM,64.4,51.8,64,29.79,10.0,SE,13.8,-,N/A,,Mostly Cloudy,130,2013-05-05 03:04:00
8:53 PM,64.9,52.0,63,29.78,10.0,SSE,12.7,-,N/A,,Overcast,150,2013-05-05 03:53:00
9:53 PM,64.0,51.1,63,29.80,6.0,SE,10.4,-,N/A,,Haze,130,2013-05-05 04:53:00
10:53 PM,63.0,50.0,63,29.80,10.0,SE,13.8,-,N/A,,Haze,140,2013-05-05 05:53:00
11:53 PM,62.1,50.0,65,29.81,6.0,SSE,15.0,-,N/A,,Haze,150,2013-05-05 06:53:00